www.pogodaiklimat.ru

Погода и климат >> Архив погоды >> Япония >> Айкава


ПОГОДА в Айкаве

  • Прогноз погоды в Айкаве
  • Монитор погоды в Айкаве

АРХИВ ПОГОДЫ в Айкаве

Время (UTC), дата Ветер
(напр.,м/с)
 
Видим.   Явления Облачность Т
(С)
Тd
(С)
f
(%)
Тe
(С)
Тes
(С)
Комфортность P
(гПа)
Po
(гПа)
Тmin
(С)
Tmax
(С)
R
(мм)
R24
(мм)
S
(см)
16 14.09 В 1 20 км н/о +23.0 +18.3 75 +29 +29 очень
душно
1011.0 1010.2
17 14.09 СВ 3 20 км н/о +22.9 +18.0 74 +28 +28 душно 1010.8 1010.0
18 14.09 ЮВ 4 16 км н/о +22.7 +18.5 77 +28 +28 душно 1010.1 1009.3
19 14.09 В 3 20 км н/о +22.2 +17.8 76 +27 +27 душно 1010.1 1009.3
20 14.09 В 2 20 км н/о +21.6 +17.8 79 +26 +26 душно 1010.6 1009.8
21 14.09 В 3 20 км н/о +22.4 +18.4 78 +28 +28 душно 1010.4 1009.6
22 14.09 В 3 18 км н/о +24.4 +19.3 73 +29 +29 душно 1010.2 1009.4
23 14.09 ЮВ 2 20 км н/о +26.6 +20.2 68 +33 +33 очень
душно
1010.4 1009.6
00 15.09 Ю 2 20 км н/о +27.5 +19.8 63 +33 +33 очень
душно
1010.6 1009.8 +21.5
01 15.09 ЮЗ 3 19 км н/о +28.4 +20.9 64 +36 +36 очень
душно
1010.3 1009.5
02 15.09 ЮЗ 4 20 км н/о +28.6 +22.6 70 +38 +38 очень
душно
1010.0 1009.2
03 15.09 З 3 20 км н/о +27.8 +22.5 73 +37 +37 очень
душно
1009.8 1009.0
04 15.09 З 3 20 км н/о +27.7 +23.1 76 +37 +37 очень
душно
1009.1 1008.3
05 15.09 СЗ 4 20 км н/о +27.4 +22.1 73 +36 +36 очень
душно
1008.6 1007.8
06 15.09 СЗ 5 20 км н/о +27.3 +21.1 69 +34 +34 очень
душно
1008.1 1007.3
07 15.09 С 5 20 км н/о +27.8 +20.9 66 +35 +35 очень
душно
1007.9 1007.1
08 15.09 С 4 15 км н/о +27.5 +20.8 67 +34 +34 очень
душно
1007.9 1007.1
09 15.09 СВ 1 18 км н/о +26.3 +21.5 75 +34 +34 очень
душно
1007.9 1007.1
10 15.09 В 1 20 км н/о +24.1 +21.8 87 +31 +31 очень
душно
1008.1 1007.3
11 15.09 В 1 20 км н/о +23.7 +21.2 86 +30 +30 очень
душно
1008.3 1007.5
12 15.09 В 2 20 км н/о +23.4 +20.2 82 +31 +31 очень
душно
1008.1 1007.3 +29.2
13 15.09 СВ 2 20 км н/о +23.2 +20.5 85 +31 +31 очень
душно
1008.0 1007.2
14 15.09 В 3 20 км н/о +23.0 +20.5 86 +30 +30 очень
душно
1007.4 1006.6
15 15.09 В 2 20 км н/о +23.0 +19.0 78 +29 +29 очень
душно
1006.9 1006.1
16 15.09 В 2 20 км н/о +22.6 +19.2 81 +29 +29 очень
душно
1006.6 1005.8
17 15.09 ЮВ 2 18 км н/о +22.7 +20.4 87 +29 +29 очень
душно
1006.3 1005.5
18 15.09 СВ 3 17 км н/о +23.2 +20.4 84 +30 +30 очень
душно
1006.4 1005.6
19 15.09 СВ 2 18 км н/о +22.0 +19.9 88 +28 +28 душно 1005.9 1005.1
21 15.09 СВ 2 18 км н/о +22.4 +20.0 86 +29 +29 очень
душно
1005.7 1004.9
22 15.09 В 2 20 км н/о +22.9 +20.3 85 +30 +30 очень
душно
1005.7 1004.9
23 15.09 СЗ 3 20 км н/о +26.3 +21.7 76 +34 +34 очень
душно
1005.6 1004.8
00 16.09 С 6 20 км н/о +27.0 +21.5 72 +34 +34 очень
душно
1005.0 1004.2 +21.9
01 16.09 С 6 20 км н/о +27.7 +21.5 69 +35 +35 очень
душно
1004.6 1003.8
02 16.09 С 5 20 км н/о +26.6 +22.2 77 +35 +35 очень
душно
1004.7 1003.9
03 16.09 С 3 20 км слаб. дождь н/о +25.6 +22.1 81 +33 +33 очень
душно
1004.4 1003.6
04 16.09 С 5 20 км в посл. час дождь н/о +26.8 +21.8 74 +34 +34 очень
душно
1003.3 1002.5
05 16.09 С 5 20 км н/о +26.9 +21.7 73 +34 +34 очень
душно
1003.2 1002.4
06 16.09 С 6 20 км {дождь} н/о +26.4 +21.6 75 +34 +34 очень
душно
1003.7 1002.9 0.0
07 16.09 С 4 20 км н/о +26.2 +21.4 75 +33 +33 очень
душно
1003.8 1003.0
08 16.09 С 4 20 км н/о +25.8 +21.3 76 +33 +33 очень
душно
1004.2 1003.4
09 16.09 С 3 13 км н/о +25.3 +21.4 79 +32 +32 очень
душно
1004.5 1003.7
10 16.09 С 2 20 км н/о +24.2 +21.1 83 +31 +31 очень
душно
1005.5 1004.7
11 16.09 С 3 19 км н/о +24.5 +20.4 78 +30 +30 очень
душно
1006.0 1005.2
12 16.09 С 2 20 км н/о +24.1 +20.6 81 +30 +30 очень
душно
1006.2 1005.4 +28.0 0.0
13 16.09 С 3 20 км н/о +24.9 +21.0 79 +31 +31 очень
душно
1006.4 1005.6
14 16.09 С 3 19 км н/о +24.7 +21.0 80 +31 +31 очень
душно
1006.7 1005.9
15 16.09 С 6 3700 м дождь н/о +23.1 +21.4 90 +31 +31 очень
душно
1007.3 1006.5
16 16.09 С 4 14 км слаб. дождь н/о +23.1 +21.2 89 +31 +31 очень
душно
1007.9 1007.1
17 16.09 СВ 3 20 км в посл. час дождь н/о +22.7 +20.8 89 +30 +30 очень
душно
1008.4 1007.6
18 16.09 С 4 12 км слаб. дождь н/о +22.9 +20.4 86 +30 +30 очень
душно
1008.6 1007.8 18
19 16.09 С 6 20 км в посл. час дождь н/о +22.6 +19.6 83 +29 +29 очень
душно
1009.1 1008.3
20 16.09 С 4 20 км н/о +22.5 +18.7 79 +28 +28 душно 1009.8 1009.0
21 16.09 В 1 20 км {дождь} н/о +21.5 +19.1 86 +26 +26 душно 1010.9 1010.1
22 16.09 С 3 20 км н/о +22.9 +17.8 73 +28 +28 душно 1011.4 1010.6
23 16.09 С 4 20 км н/о +23.8 +17.6 68 +28 +28 душно 1011.7 1010.9
00 17.09 С 4 20 км {дождь} н/о +24.5 +17.3 64 +28 +28 душно 1012.1 1011.3 +21.2 18
01 17.09 С 7 20 км н/о +25.0 +16.4 59 +28 +28 жарко 1012.5 1011.7
02 17.09 С 6 20 км н/о +26.1 +16.4 55 +30 +30 душно 1012.6 1011.8
03 17.09 С 7 20 км н/о +25.8 +15.2 52 +29 +29 душно 1012.7 1011.9
04 17.09 С 8 20 км н/о +25.5 +15.5 54 +29 +29 душно 1012.0 1011.2
05 17.09 С 5 20 км н/о +25.1 +16.3 58 +28 +28 жарко 1012.4 1011.6
06 17.09 СЗ 2 20 км н/о +25.9 +16.5 56 +29 +29 душно 1012.6 1011.8
07 17.09 СВ 3 20 км н/о +25.0 +15.6 56 +28 +28 жарко 1012.7 1011.9
08 17.09 С 3 20 км н/о +24.3 +14.4 54 +27 +27 жарко 1012.9 1012.1
09 17.09 В 1 20 км н/о +21.0 +16.6 76 +26 +26 душно 1013.2 1012.4
10 17.09 СВ 2 20 км н/о +19.2 +14.5 74 +21 +21 комфорт 1013.5 1012.7
11 17.09 СВ 1 13 км н/о +18.1 +13.0 72 +20 +20 1013.3 1012.5
12 17.09 В 3 18 км н/о +17.6 +12.3 71 +18 +18 1013.6 1012.7 +26.4
13 17.09 В 3 20 км н/о +17.2 +11.9 71 +17 +17 1013.3 1012.4
14 17.09 СВ 4 10 км н/о +18.5 +11.8 65 +19 +19 1012.8 1012.0
15 17.09 СВ 4 14 км н/о +18.4 +12.2 67 +19 +19 1012.3 1011.5
16 17.09 В 3 16 км н/о +18.1 +12.6 70 +18 +18 1012.3 1011.5
17 17.09 В 4 14 км н/о +18.3 +13.2 72 +19 +19 1011.8 1011.0
18 17.09 В 2 11 км н/о +19.7 +12.5 63 +22 +22 комфорт 1011.6 1010.8
20 17.09 В 2 12 км н/о +19.1 +13.3 69 +21 +21 комфорт 1012.0 1011.2
21 17.09 В 1 10 км н/о +19.6 +13.3 67 +23 +23 комфорт 1012.4 1011.6
23 17.09 СВ 2 13 км н/о +21.6 +15.5 68 +25 +25 комфорт 1012.0 1011.2
01 18.09 В 1 15 км н/о +22.9 +15.3 62 +27 +27 душно 1012.0 1011.2
02 18.09 СЗ 3 16 км н/о +24.3 +14.4 54 +27 +27 жарко 1012.0 1011.2
03 18.09 С 4 20 км н/о +24.1 +15.1 57 +27 +27 жарко 1011.8 1011.0
04 18.09 СЗ 5 20 км н/о +24.3 +15.3 57 +27 +27 жарко 1011.0 1010.2
05 18.09 СЗ 6 20 км н/о +24.4 +15.6 58 +27 +27 жарко 1011.2 1010.4
06 18.09 СЗ 6 20 км н/о +23.7 +15.5 60 +27 +27 жарко 1011.1 1010.3
07 18.09 С 5 20 км н/о +23.5 +15.0 59 +26 +26 жарко 1012.0 1011.2
09 18.09 С 3 20 км н/о +22.2 +15.1 64 +26 +26 душно 1012.7 1011.9
10 18.09 СВ 3 20 км н/о +21.4 +14.6 65 +24 +24 комфорт 1013.0 1012.2
11 18.09 СВ 2 19 км н/о +21.1 +15.2 69 +24 +24 комфорт 1013.6 1012.8
12 18.09 В 2 15 км н/о +20.4 +15.8 75 +24 +24 комфорт 1013.7 1012.9 +25.0
13 18.09 С 9 13 км слаб. дождь н/о +22.1 +17.3 74 +27 +27 душно 1013.5 1012.7
14 18.09 С 9 10 км в посл. час дождь н/о +21.6 +15.0 66 +25 +25 комфорт 1014.2 1013.4
15 18.09 С 10 8000 м дым {дождь} н/о +21.2 +14.1 64 +24 +24 комфорт 1014.6 1013.8
16 18.09 С 8 11 км н/о +20.5 +12.0 58 +22 +22 комфорт 1014.7 1013.9
17 18.09 С 9 13 км н/о +20.1 +10.8 55 +21 +21 комфорт 1014.9 1014.1
18 18.09 С 7 13 км {дождь} н/о +19.6 +10.3 55 +20 +20 1015.3 1014.5 0.0
19 18.09 С 9 13 км н/о +19.0 +9.5 54 +19 +19 1015.7 1014.9
20 18.09 С 6 13 км н/о +18.8 +9.0 53 +19 +19 1016.1 1015.3
21 18.09 СВ 3 12 км н/о +17.5 +8.6 56 +18 +18 1017.1 1016.2
22 18.09 С 3 16 км н/о +17.7 +9.4 58 +18 +18 1017.8 1016.9
23 18.09 С 7 20 км н/о +19.5 +8.5 49 +20 +20 1018.1 1017.3
00 19.09 С 6 19 км н/о +20.0 +7.7 45 +21 +21 комфорт 1018.0 1017.2 +17.0 0.0
01 19.09 С 7 20 км н/о +20.2 +8.2 46 +21 +21 комфорт 1018.0 1017.2
02 19.09 С 7 20 км н/о +20.4 +8.1 45 +21 +21 комфорт 1018.3 1017.5
03 19.09 С 5 20 км н/о +20.6 +7.9 44 +22 +22 комфорт 1017.8 1017.0
04 19.09 С 5 20 км н/о +20.6 +8.6 46 +22 +22 комфорт 1017.6 1016.8
05 19.09 СЗ 5 20 км н/о +20.8 +9.1 47 +22 +22 комфорт 1017.2 1016.4
06 19.09 СЗ 4 20 км н/о +20.2 +7.9 45 +21 +21 комфорт 1017.1 1016.3
07 19.09 СЗ 4 15 км н/о +20.0 +7.7 45 +21 +21 комфорт 1017.2 1016.4
08 19.09 СЗ 4 12 км н/о +19.8 +8.8 49 +21 +21 комфорт 1017.1 1016.3
09 19.09 СВ 3 18 км н/о +17.6 +9.0 57 +18 +18 1017.3 1016.4
10 19.09 СВ 4 18 км н/о +17.1 +9.0 59 +17 +17 1017.9 1017.0
11 19.09 СВ 4 13 км н/о +16.8 +9.3 61 +16 +16 1018.4 1017.5
12 19.09 В 3 14 км н/о +15.8 +9.7 67 +16 +16 1018.2 1017.3 +21.1
13 19.09 В 3 13 км н/о +15.9 +10.0 68 +16 +16 1018.1 1017.2
14 19.09 В 2 13 км н/о +15.6 +10.2 70 +16 +16 1018.2 1017.3
15 19.09 В 2 14 км н/о +16.4 +10.1 66 +17 +17 1018.1 1017.2
16 19.09 В 4 16 км н/о +16.3 +9.7 65 +16 +16 1017.7 1016.8
18 19.09 В 3 11 км н/о +15.9 +10.2 69 +16 +16 1017.6 1016.7
19 19.09 В 2 14 км н/о +15.7 +11.1 74 +16 +16 1017.7 1016.8
20 19.09 ЮВ 1 15 км н/о +16.2 +11.8 75 +17 +17 1018.0 1017.1
21 19.09 ЮВ 2 14 км н/о +17.1 +12.4 74 +18 +18 1018.0 1017.1
22 19.09 З 4 12 км н/о +20.0 +13.2 65 +22 +22 комфорт 1017.8 1017.0
23 19.09 З 4 13 км н/о +21.3 +14.2 64 +24 +24 комфорт 1018.1 1017.3
00 20.09 ЮЗ 2 11 км н/о +21.5 +14.7 65 +25 +25 комфорт 1018.2 1017.4 +15.5
01 20.09 В 4 16 км слаб. дождь н/о +20.5 +15.3 72 +24 +24 комфорт 1018.3 1017.5
02 20.09 Ю 3 14 км в посл. час дождь н/о +21.6 +15.2 67 +25 +25 комфорт 1018.2 1017.4
03 20.09 З 2 17 км {дождь} н/о +22.3 +13.9 59 +25 +25 комфорт 1018.1 1017.3
04 20.09 С 4 20 км н/о +22.9 +12.8 53 +26 +26 жарко 1018.0 1017.2
05 20.09 С 5 20 км н/о +23.3 +12.3 50 +26 +26 жарко 1017.9 1017.1
06 20.09 С 3 20 км {дождь} н/о +22.7 +12.4 52 +25 +25 комфорт 1018.3 1017.5 0.0
07 20.09 С 2 20 км н/о +22.1 +12.7 55 +25 +25 комфорт 1019.1 1018.3
08 20.09 СВ 3 16 км н/о +20.3 +14.0 67 +23 +23 комфорт 1019.6 1018.8
09 20.09 СВ 4 13 км н/о +19.3 +12.6 65 +21 +21 комфорт 1019.8 1018.9
10 20.09 СВ 4 11 км н/о +19.2 +12.7 66 +20 +20 1019.8 1018.9
11 20.09 СВ 4 14 км н/о +18.9 +12.9 68 +20 +20 1020.4 1019.5
12 20.09 В 4 17 км н/о +19.0 +12.7 67 +20 +20 1020.0 1019.1 +24.0 0.0
13 20.09 В 3 15 км н/о +18.5 +13.2 71 +19 +19 1020.1 1019.2
14 20.09 СВ 3 14 км н/о +18.1 +13.2 73 +19 +19 1020.4 1019.5
15 20.09 В 2 16 км н/о +18.2 +12.7 70 +19 +19 1020.4 1019.5
16 20.09 СВ 2 14 км н/о +17.8 +12.9 73 +19 +19 1020.6 1019.7
17 20.09 В 4 14 км н/о +17.4 +12.5 73 +17 +17 1020.3 1019.4
18 20.09 В 2 19 км н/о +17.5 +12.6 73 +18 +18 1020.1 1019.2
19 20.09 СВ 4 16 км н/о +18.5 +12.5 68 +19 +19 1020.0 1019.1
20 20.09 В 3 17 км н/о +18.3 +12.7 70 +19 +19 1020.2 1019.3
22 20.09 В 1 12 км н/о +18.7 +14.2 75 +21 +21 комфорт 1021.5 1020.6
23 20.09 СВ 1 18 км н/о +20.6 +15.2 71 +25 +25 комфорт 1020.9 1020.1
00 21.09 СВ 2 20 км н/о +22.1 +14.2 61 +25 +25 комфорт 1021.5 1020.7 +16.8
01 21.09 В 1 20 км н/о +22.6 +14.5 60 +26 +26 жарко 1021.5 1020.7
02 21.09 СЗ 3 7000 м дым н/о +23.2 +13.7 55 +27 +27 душно 1020.9 1020.1
03 21.09 З 2 20 км н/о +23.1 +13.3 54 +26 +26 жарко 1021.0 1020.2
04 21.09 СЗ 2 20 км н/о +23.0 +12.3 51 +26 +26 жарко 1020.7 1019.9
05 21.09 СВ 2 18 км н/о +22.4 +15.0 63 +26 +26 жарко 1020.6 1019.8
06 21.09 ЮВ 3 20 км н/о +22.0 +16.5 71 +26 +26 душно 1020.6 1019.8
08 21.09 В 4 20 км слаб. дождь н/о +20.4 +16.8 80 +24 +24 комфорт 1020.8 1020.0
09 21.09 В 4 15 км в посл. час дождь н/о +20.1 +15.8 76 +23 +23 комфорт 1021.2 1020.4
10 21.09 В 4 14 км н/о +20.3 +15.3 73 +23 +23 комфорт 1021.0 1020.2
11 21.09 В 4 18 км н/о +20.5 +15.3 72 +24 +24 комфорт 1021.8 1021.0
12 21.09 В 3 9000 м дым {дождь} н/о +20.2 +14.6 70 +23 +23 комфорт 1022.1 1021.2 +23.8 0.0
13 21.09 ЮВ 1 14 км н/о +19.4 +14.9 75 +23 +23 комфорт 1022.0 1021.1
14 21.09 В 1 13 км н/о +19.4 +14.9 75 +23 +23 комфорт 1021.8 1020.9

 

Местоположение метеостанции Айкава (Япония): широта 38.03 долгота 138.23 высота над уровнем моря 17 м.

В архиве по умолчанию представлена погода в Айкаве за последнюю неделю. Архивные данные за месяц целиком и за предыдущие месяцы, начиная с января 2011 года, Вы можете получить, выбрав интересующий диапазон дат из раскрывающегося списка и нажав кнопку "Ввод!".


*Определитесь, кто Вы:
робот инопланетянин человек

Внимание! Время в таблицах - всемирное. Для получения местного времени необходимо прибавить поправку, которая равна 9 ч.

Смотрите также архив погоды в соседних городах и на ближайших метеорологических станциях:

Погода в Ниигате (Япония) (73 км)
Погода в Такаде (Япония) (103 км)
Погода в Вадзиме (Япония) (136 км)
Погода в Нагано (Япония) (151 км)
Погода в Вакамацу (Япония) (160 км)
Погода в Тояме (Япония) (172 км)
Погода в Фушики (Япония) (172 км)
Погода в Сакате (Япония) (172 км)
Погода в Никко (Япония) (183 км)
Погода в Ямаге (Япония) (187 км)

Пояснения к столбцам:

Ветер - указаны скорость ветра в м/с - средняя за 10 мин, порывы в срок и между сроками (в фигурных скобках) и направление, откуда дует ветер: С - северный, СВ - северо-восточный, В - восточный, ЮВ - юго-восточный, Ю - южный, ЮЗ - юго-западный, З - западный, СЗ - северо-западный.
Видимость - горизонтальная дальность видимости в метрах или километрах. При видимости от 1 до 10 км при отсутствии осадков обычно наблюдается дымка, при ухудшении видимости до 1 км и менее - туман. В сухую погоду видимость может ухудшаться дымом, пылью или мглою.
Явления - указаны атмосферные явления, наблюдавшиеся в срок или в последний час перед сроком; фигурными скобками обозначены явления, наблюдавшиеся между сроками (за 1-3 часа до срока); квадратными скобками обозначены град или гололедные отложения с указанием их диаметра в мм.
Облачность - указаны через наклонную черту общая и нижняя облачность в баллах и высота нижней границы облаков в метрах; квадратными скобками обозначены формы облаков: Ci - перистые, Cs - перисто-слоистые, Cc - перисто-кучевые, Ac - высококучевые, As - высокослоистые, Sc - слоисто-кучевые, Ns - слоисто-дождевые, Cu - кучевые, Cb - кучево-дождевые. Подробнее классификацию облаков см. в Атласе облаков (PDF).
T - Температура воздуха - температура, измеренная на высоте 2 м над землей.
Td - Температура точки росы - температура, при понижении до которой содержащийся в воздухе водяной пар достигнет насыщения.
f - Относительная влажность воздуха - влажноcть воздуха, измеренная на высоте 2 м над землей.
Te - Эффективная температура - температура, которую ощущает одетый по сезону человек в тени. Характеристика душности погоды. При расчете учитывается влияние влажности воздуха и скорости ветра на теплоощущения человека.
Tes - Эффективная температура на солнце - температура, которую ощущает человек, с поправкой на солнечный нагрев. Характеристика знойности погоды. Зависит от высоты солнца над горизонтом, облачности и скорости ветра. Ночью, в пасмурную погоду, а также при ветре 12 м/с и более поправка равна нулю.
P - Атмосферное давление - приведенное к уровню моря атмосферное давление.
Po - Атмосферное давление - измеренное на уровне метеостанции атмосферное давление.
Tmin - Минимальная температура - минимум температуры воздуха на высоте 2 м над землей.
Tmax - Максимальная температура - максимум температуры воздуха на высоте 2 м над землей.
R - Количество осадков - Количество выпавших осадков за период времени, мм. При наведении курсора мыши на число - период времени, за который выпало указанное количество осадков.
R24 - Количество осадков - Количество выпавших осадков за 24 часа, мм.
S - Снежный покров - Высота снежного покрова, см. При наведении курсора мыши на число - состояние снежного покрова и степень покрытия местности в баллах.